Retour au catalogue

THORAD DELTA 1 DEB

ActifSSO
NORAD 8137·DEBRIS·🇺🇸 United States

Lancé Nov 15, 1974 depuis Vandenberg Space Force Base

Loading…

Prochains Passages (prochaines 24 heures)

TLE

FraisSource: Space-Track

Époque: Sep 14, 2026, 07:29 UTC

1 08137U 74089F   26257.31205822 -.00000030  00000-0  68028-4 0  9994
2 08137 101.2134 189.4850 0091487 352.5803 161.7506 12.71222092402058

Suivez THORAD DELTA 1 DEB en temps réel avec AllMySat

Download on the App Store